STARLINK-36338, 67704

Orbit data source: Space-Track

STARLINK-36338, 67704 is a payload satellite owned by SpaceX/Seattle (US) in SSO that was launched on Sat, 07 Feb 2026 UTC via an FALCON 9 launch vehicle from the Air Force Western Test Range (AFWTR). Payload-class satellites include a variety of spacecraft equipped with specific instruments for various scientific and technological missions. These include communications satellites like Starlink; space stations such as the ISS; scientific satellites like the Hubble; Earth observation satellites from companies like Planet Labs, Umbra, and HawkEye 360; GPS; miniature CubeSats for education and research; and military/defense satellites.

Loading next visibility...
Identifier
67704, 2026-025M
Orbit
SSO
Country
Flag of USUS
Related business
Manufacturer
SpaceX/Seattle
Mission
Operational spacecraft
Bus & Motor
STARLINK V2MO, Unknown motor
Mass
575 kg wet, ~530 kg dry
Launch date (UTC)
2026-02-07 (1 month ago)
Launch vehicle
FALCON 9
Launch site
Air Force Western Test Range (AFWTR)
Object type
Payload
Rocket body
Debris
Shape & HBR
Unknown
Radar Cross Section
RCS unknown

Expand to show TLE details & history
Last TLE update: 12 hours ago

TLE from 12 hours ago
0 STARLINK-36338
1 67704U 26025M   26071.87148266  .00259981  00000-0  16918-2 0  9998
2 67704  97.2839 183.6479 0001578  90.1168 270.0278 15.75183744  6443
Epoch: 2026-03-12T20:54Z
TLE epoch observation values (Epoch: 2026-03-12T20:54:56.101Z)
Latitude
-0.00005°
Longitude
59.399°
Altitude
347.276 km
Speed
7.701 km/s
True Right ascension
12h 14m 35s
True Declination
0° 00' 00"
Sunlit
Object was in full shadow at epoch
Visualization orbit readout
Latitude
Unknown
Longitude
Unknown
Altitude
Unknown
Speed
Unknown
Apparent Right ascension
Unknown
Apparent Declination
Unknown
Sunlit
N/A
Visualization observer readout
Local Sidereal Time
12:50:45
Azimuth
Unknown
Elevation
Unknown
Doppler factor
Unknown
Orbital elements
Apogee altitude
342.056 km
Perigee altitude
339.935 km
Semi-major axis
6,719.133 km
Eccentricity
0.00016
Inclination
97.2839°
RAAN
183.6479°
Arg. of periapsis
90.1168°
True anomaly
270.00972°
Mean anomaly
270.0278°
Eccentric anomaly
270.01876°
Mean motion
3.9407 °/min
Orbital period
91.35 mins
BSTAR
0.0016918
Loading maneuver chart data...
Computing Atmospheric mass density...
Loading historical data...
Loading historical data...
Loading historical data...
Loading historical data...
Loading historical data...
Loading historical data...
Loading historical data...

Documentation

Showing up to 5 results
|